TimePST,TemperatureF,Dew PointF,Humidity,Sea Level PressureIn,VisibilityMPH,Wind Direction,Wind SpeedMPH,Gust SpeedMPH,PrecipitationIn,Events,Conditions,WindDirDegrees,DateUTC
12:07 AM,35.6,33.8,93,30.19,6.0,Calm,Calm,-,N/A,,Overcast,0,2013-11-06 08:07:00
12:27 AM,35.6,33.8,93,30.19,1.8,Calm,Calm,-,N/A,,Overcast,0,2013-11-06 08:27:00
12:42 AM,35.6,33.8,93,30.20,0.8,NE,3.5,-,N/A,,Overcast,50,2013-11-06 08:42:00
12:53 AM,35.1,34.0,96,30.27,0.5,Calm,Calm,-,N/A,Fog,Fog,0,2013-11-06 08:53:00
1:53 AM,36.0,35.1,97,30.29,0.2,Calm,Calm,-,N/A,Fog,Fog,0,2013-11-06 09:53:00
2:53 AM,35.1,35.1,100,30.31,0.2,West,3.5,-,N/A,Fog,Fog,280,2013-11-06 10:53:00
3:48 AM,35.6,35.6,100,30.25,1.8,West,5.8,-,N/A,,Overcast,280,2013-11-06 11:48:00
3:53 AM,35.1,35.1,100,30.32,2.5,Calm,Calm,-,N/A,,Overcast,0,2013-11-06 11:53:00
4:06 AM,35.6,35.6,100,30.26,1.0,Calm,Calm,-,N/A,,Overcast,0,2013-11-06 12:06:00
4:19 AM,35.6,33.8,93,30.26,3.0,West,4.6,-,N/A,,Overcast,280,2013-11-06 12:19:00
4:49 AM,35.6,33.8,93,30.26,1.8,NW,3.5,-,N/A,,Overcast,310,2013-11-06 12:49:00
4:53 AM,35.1,34.0,96,30.34,0.8,NW,3.5,-,N/A,,Overcast,320,2013-11-06 12:53:00
5:20 AM,35.6,33.8,93,30.27,2.0,Calm,Calm,-,N/A,,Overcast,0,2013-11-06 13:20:00
5:53 AM,35.1,34.0,96,30.35,2.5,Calm,Calm,-,N/A,,Overcast,0,2013-11-06 13:53:00
6:09 AM,35.6,33.8,93,30.28,3.0,Calm,Calm,-,N/A,,Overcast,0,2013-11-06 14:09:00
6:53 AM,35.1,34.0,96,30.36,2.0,Calm,Calm,-,N/A,,Overcast,0,2013-11-06 14:53:00
7:15 AM,35.6,33.8,93,30.30,1.5,Calm,Calm,-,N/A,,Overcast,0,2013-11-06 15:15:00
7:33 AM,35.6,33.8,93,30.30,0.8,Calm,Calm,-,N/A,,Overcast,0,2013-11-06 15:33:00
7:42 AM,35.6,35.6,100,30.31,1.2,Calm,Calm,-,N/A,,Overcast,0,2013-11-06 15:42:00
7:53 AM,36.0,35.1,97,30.38,1.8,Calm,Calm,-,N/A,,Overcast,0,2013-11-06 15:53:00
8:03 AM,35.6,35.6,100,30.31,2.0,Calm,Calm,-,N/A,,Overcast,0,2013-11-06 16:03:00
8:23 AM,35.6,35.6,100,30.32,1.5,SSE,3.5,-,N/A,,Overcast,160,2013-11-06 16:23:00
8:46 AM,35.6,35.6,100,30.33,0.8,East,3.5,-,N/A,,Overcast,90,2013-11-06 16:46:00
8:53 AM,37.0,35.1,93,30.40,1.5,East,3.5,-,N/A,,Overcast,100,2013-11-06 16:53:00
9:14 AM,37.4,35.6,93,30.33,2.0,East,3.5,-,N/A,,Overcast,90,2013-11-06 17:14:00
9:46 AM,37.4,35.6,93,30.34,3.0,ESE,5.8,-,N/A,,Overcast,120,2013-11-06 17:46:00
9:53 AM,37.0,36.0,96,30.40,3.0,SE,6.9,-,N/A,,Overcast,130,2013-11-06 17:53:00
10:48 AM,39.2,37.4,93,30.34,5.0,ESE,6.9,-,N/A,,Overcast,120,2013-11-06 18:48:00
10:53 AM,39.0,37.0,93,30.40,6.0,ESE,8.1,-,N/A,,Overcast,110,2013-11-06 18:53:00
11:27 AM,41.0,37.4,87,30.34,7.0,East,5.8,-,N/A,,Overcast,100,2013-11-06 19:27:00
11:53 AM,39.9,37.0,89,30.39,7.0,ESE,8.1,-,N/A,,Overcast,120,2013-11-06 19:53:00
12:00 PM,39.2,35.6,87,30.34,7.0,ESE,6.9,-,N/A,,Overcast,110,2013-11-06 20:00:00
12:08 PM,39.2,35.6,87,30.34,7.0,ESE,8.1,-,N/A,,Overcast,110,2013-11-06 20:08:00
12:31 PM,41.0,37.4,87,30.34,7.0,East,6.9,-,N/A,,Overcast,90,2013-11-06 20:31:00
12:53 PM,41.0,36.0,82,30.38,8.0,East,6.9,-,N/A,,Overcast,100,2013-11-06 20:53:00
1:53 PM,39.9,36.0,86,30.38,8.0,East,9.2,-,N/A,,Overcast,100,2013-11-06 21:53:00
2:53 PM,41.0,37.0,86,30.38,7.0,East,9.2,-,N/A,,Overcast,100,2013-11-06 22:53:00
3:53 PM,39.9,36.0,86,30.37,7.0,East,9.2,-,N/A,,Overcast,100,2013-11-06 23:53:00
4:53 PM,39.0,36.0,89,30.37,9.0,East,9.2,-,N/A,,Overcast,90,2013-11-07 00:53:00
5:53 PM,39.0,35.1,86,30.36,8.0,East,10.4,-,N/A,,Mostly Cloudy,90,2013-11-07 01:53:00
6:53 PM,39.9,35.1,83,30.35,7.0,East,11.5,-,N/A,,Partly Cloudy,90,2013-11-07 02:53:00
7:53 PM,39.9,35.1,83,30.34,6.0,East,11.5,-,N/A,,Haze,90,2013-11-07 03:53:00
8:53 PM,39.9,36.0,86,30.33,7.0,East,12.7,-,N/A,,Overcast,100,2013-11-07 04:53:00
9:53 PM,39.9,36.0,86,30.32,7.0,East,11.5,-,N/A,,Overcast,100,2013-11-07 05:53:00
10:53 PM,39.9,36.0,86,30.29,7.0,East,13.8,-,N/A,,Overcast,100,2013-11-07 06:53:00
11:53 PM,41.0,36.0,82,30.27,7.0,East,15.0,-,N/A,,Overcast,100,2013-11-07 07:53:00